This is the latest recevied weather packets stored in our database for station/object p43g-13. If no packets are shown the sender has not sent any weather packets the latest 10 day(s).
| Time | Temp. | Humidity | Pressure | Rain* | Wind** | Luminosity | Snow |
|---|---|---|---|---|---|---|---|
| 1787574209 | 30° C | 81% | 1012.5 hPa | 0 mm | - | 263 W/m² | - |
| 1787573909 | 30° C | 81% | 1012.3 hPa | 0 mm | - | 236 W/m² | - |
| 1787573609 | 30° C | 81% | 1012.2 hPa | 0 mm | - | 213 W/m² | - |
| 1787573309 | 30° C | 81% | 1012.3 hPa | 0 mm | - | 200 W/m² | - |
| 1787573009 | 29.44° C | 81% | 1012.1 hPa | 0 mm | - | 178 W/m² | - |
| 1787572710 | 29.44° C | 82% | 1012 hPa | 0 mm | - | 151 W/m² | - |
| 1787572409 | 28.89° C | 85% | 1012 hPa | 0 mm | - | 178 W/m² | - |
| 1787572109 | 28.89° C | 86% | 1012.1 hPa | 0 mm | - | 128 W/m² | - |
| 1787571809 | 28.89° C | 86% | 1012 hPa | 0 mm | - | 71 W/m² | - |
| 1787571509 | 28.89° C | 86% | 1012 hPa | 0 mm | - | 54 W/m² | - |
| 1787571209 | 28.89° C | 86% | 1012 hPa | 0 mm | - | 79 W/m² | - |
| 1787570908 | 28.33° C | 87% | 1012 hPa | 0 mm | - | 62 W/m² | - |
| 1787570609 | 28.33° C | 87% | 1012 hPa | 0 mm | - | 53 W/m² | - |
| 1787570309 | 28.33° C | 87% | 1012.1 hPa | 0 mm | - | 39 W/m² | - |
| 1787570009 | 28.33° C | 87% | 1011.9 hPa | 0 mm | - | 33 W/m² | - |
| 1787569709 | 28.33° C | 87% | 1011.9 hPa | 0 mm | - | 37 W/m² | - |
| 1787569409 | 28.33° C | 87% | 1012.1 hPa | 0 mm | - | 36 W/m² | - |
| 1787569109 | 28.33° C | 87% | 1011.8 hPa | 0 mm | - | 19 W/m² | - |
| 1787568809 | 28.33° C | 87% | 1012.1 hPa | 0 mm | - | 15 W/m² | - |
| 1787568508 | 28.33° C | 86% | 1012.1 hPa | 0 mm | - | 12 W/m² | - |
| 1787568209 | 28.33° C | 86% | 1012.1 hPa | 0 mm | - | 10 W/m² | - |
| 1787567909 | 28.33° C | 86% | 1011.9 hPa | 0 mm | - | 8 W/m² | - |
| 1787567609 | 28.33° C | 86% | 1012.2 hPa | 0 mm | - | 5 W/m² | - |
| 1787567309 | 28.33° C | 87% | 1012 hPa | 0 mm | - | 3 W/m² | - |
| 1787567009 | 28.33° C | 87% | 1012 hPa | 0 mm | - | 0 W/m² | - |
* Rain latest hour (hover to see other rain measurements)
** Current wind speed in m/s (hover to see current wind gust speed)